Location: Munkebjergskolens Observatorium
(55.3864°N, 10.3987°E)
Time: 04:01:19
(UTC+02:00)

KKS-1 - Pass Details

Date: 11 April 2023
Orbit: 633 x 644 km, 98.2° (Epoch: 31 May)

Event Time Altitude Azimuth Distance (km) Brightness Sun altitude
Rises 00:32:25 0° 13° (NNE) 2,946 ? -25.7°
Reaches altitude 10° 00:34:38 10° 11° (N) 2,034 ? -25.8°
Enters shadow 00:38:56 64° 297° (WNW) 712 ? -25.9°
